| time (UTC) | temp C | wind direction | speed KPH | gust KPH | rain 1hr cm | rain 24hr cm | rain mn cm | humidity % | barometer mb |
| 20260507054804 | 5 | 159 | 3.2 | 4.8 | 0.03 | 0.18 | 0.18 | 90 | 1015.6 |
| 20260507054304 | 5 | 235 | 3.2 | 8.0 | 0.05 | 0.18 | 0.18 | 89 | 1015.6 |
| 20260507053804 | 5 | 235 | 4.8 | 9.7 | 0.05 | 0.15 | 0.15 | 89 | 1015.4 |
| 20260507053304 | 5 | 223 | 4.8 | 9.7 | 0.08 | 0.15 | 0.15 | 89 | 1015.4 |
| 20260507052804 | 5 | 254 | 3.2 | 4.8 | 0.10 | 0.15 | 0.15 | 89 | 1015.4 |
| 20260507052306 | 5 | 185 | 0.0 | 4.8 | 0.10 | 0.15 | 0.15 | 89 | 1015.4 |
| 20260507051804 | 5 | 245 | 1.6 | 4.8 | 0.13 | 0.15 | 0.15 | 90 | 1015.5 |
| 20260507051304 | 5 | 221 | 3.2 | 4.8 | 0.13 | 0.15 | 0.15 | 88 | 1015.4 |
| 20260507050804 | 5 | 160 | 3.2 | 4.8 | 0.13 | 0.15 | 0.15 | 88 | 1015.3 |
| 20260507050304 | 5 | 131 | 1.6 | 3.2 | 0.13 | 0.15 | 0.15 | 88 | 1015.3 |
| 20260507045804 | 5 | 138 | 4.8 | 8.0 | 0.15 | 0.15 | 0.15 | 88 | 1015.3 |
| 20260507045306 | 5 | 184 | 4.8 | 12.9 | 0.15 | 0.15 | 0.15 | 88 | 1015.4 |
| 20260507044804 | 5 | 182 | 9.7 | 16.1 | 0.15 | 0.15 | 0.15 | 88 | 1015.5 |
| 20260507044304 | 5 | 204 | 11.3 | 19.3 | 0.13 | 0.13 | 0.13 | 88 | 1015.5 |
| 20260507043804 | 5 | 194 | 14.5 | 22.5 | 0.10 | 0.10 | 0.10 | 88 | 1015.5 |
| 20260507043304 | 5 | 215 | 14.5 | 25.7 | 0.08 | 0.08 | 0.08 | 87 | 1015.4 |
| 20260507042804 | 5 | 202 | 16.1 | 24.1 | 0.05 | 0.05 | 0.05 | 86 | 1015.4 |
| 20260507042306 | 5 | 216 | 16.1 | 27.4 | 0.05 | 0.05 | 0.05 | 85 | 1015.4 |
| 20260507041804 | 5 | 215 | 11.3 | 19.3 | 0.03 | 0.03 | 0.03 | 84 | 1015.4 |
| 20260507041304 | 6 | 230 | 14.5 | 20.9 | 0.03 | 0.03 | 0.03 | 83 | 1015.3 |
| 20260507040804 | 6 | 239 | 11.3 | 19.3 | 0.03 | 0.03 | 0.03 | 82 | 1015.3 |
| 20260507040304 | 6 | 243 | 11.3 | 22.5 | 0.03 | 0.03 | 0.03 | 82 | 1015.2 |
| 20260507035804 | 6 | 222 | 12.9 | 22.5 | 0.00 | 0.00 | 0.00 | 80 | 1015.1 |
| 20260507035306 | 7 | 234 | 11.3 | 20.9 | 0.00 | 0.00 | 0.00 | 79 | 1015.1 |
| 20260507034804 | 7 | 246 | 11.3 | 16.1 | 0.00 | 0.00 | 0.00 | 79 | 1015.0 |
| 20260507034304 | 7 | 225 | 4.8 | 8.0 | 0.00 | 0.00 | 0.00 | 78 | 1014.9 |
| 20260507033804 | 7 | 254 | 1.6 | 1.6 | 0.00 | 0.00 | 0.00 | 77 | 1014.7 |
| 20260507033304 | 7 | 224 | 0.0 | 0.0 | 0.00 | 0.00 | 0.00 | 76 | 1014.6 |
| 20260507032804 | 7 | 229 | 0.0 | 1.6 | 0.00 | 0.00 | 0.00 | 76 | 1014.6 |
| 20260507032306 | 7 | 234 | 3.2 | 11.3 | 0.00 | 0.00 | 0.00 | 76 | 1014.5 |
| 20260507031804 | 7 | 222 | 4.8 | 8.0 | 0.00 | 0.00 | 0.00 | 76 | 1014.5 |
| 20260507031305 | 7 | 218 | 3.2 | 9.7 | 0.00 | 0.00 | 0.00 | 76 | 1014.4 |
| 20260507030804 | 7 | 209 | 8.0 | 11.3 | 0.00 | 0.00 | 0.00 | 76 | 1014.3 |
| 20260507030304 | 7 | 208 | 4.8 | 9.7 | 0.00 | 0.00 | 0.00 | 75 | 1014.3 |
| 20260507025804 | 7 | 208 | 3.2 | 8.0 | 0.00 | 0.00 | 0.00 | 75 | 1014.3 |
| 20260507025306 | 7 | 186 | 1.6 | 3.2 | 0.00 | 0.00 | 0.00 | 74 | 1014.3 |
| 20260507024805 | 7 | 249 | 3.2 | 3.2 | 0.00 | 0.00 | 0.00 | 74 | 1014.3 |
| 20260507024304 | 8 | 236 | 1.6 | 4.8 | 0.00 | 0.00 | 0.00 | 74 | 1014.2 |
| 20260507023804 | 7 | 249 | 1.6 | 3.2 | 0.00 | 0.00 | 0.00 | 74 | 1014.2 |
| 20260507023304 | 7 | 206 | 0.0 | 3.2 | 0.00 | 0.00 | 0.00 | 75 | 1014.2 |
| 20260507022804 | 7 | 232 | 1.6 | 3.2 | 0.00 | 0.00 | 0.00 | 76 | 1014.2 |
| 20260507022306 | 7 | 267 | 3.2 | 4.8 | 0.00 | 0.00 | 0.00 | 76 | 1014.2 |
| 20260507021804 | 7 | 239 | 0.0 | 4.8 | 0.00 | 0.00 | 0.00 | 76 | 1014.1 |
| 20260507021304 | 7 | 238 | 1.6 | 4.8 | 0.00 | 0.00 | 0.00 | 76 | 1014.0 |
| 20260507020804 | 7 | 285 | 1.6 | 4.8 | 0.00 | 0.00 | 0.00 | 75 | 1014.0 |
| 20260507020304 | 7 | 299 | 3.2 | 8.0 | 0.00 | 0.00 | 0.00 | 75 | 1014.0 |
| 20260507015804 | 7 | 214 | 3.2 | 4.8 | 0.00 | 0.00 | 0.00 | 74 | 1014.1 |
| 20260507015306 | 7 | 280 | 3.2 | 8.0 | 0.00 | 0.00 | 0.00 | 74 | 1014.1 |
| 20260507014804 | 8 | 259 | 3.2 | 4.8 | 0.00 | 0.00 | 0.00 | 74 | 1014.1 |
| 20260507014305 | 8 | 208 | 8.0 | 11.3 | 0.00 | 0.00 | 0.00 | 74 | 1014.1 |
| 20260507013805 | 8 | 235 | 3.2 | 8.0 | 0.00 | 0.00 | 0.00 | 74 | 1014.1 |
| 20260507013304 | 8 | 279 | 4.8 | 8.0 | 0.00 | 0.00 | 0.00 | 74 | 1014.1 |
| 20260507012804 | 8 | 286 | 3.2 | 8.0 | 0.00 | 0.00 | 0.00 | 73 | 1014.0 |
| 20260507012306 | 8 | 213 | 3.2 | 9.7 | 0.00 | 0.00 | 0.00 | 72 | 1014.1 |
| 20260507011805 | 8 | 257 | 4.8 | 11.3 | 0.00 | 0.00 | 0.00 | 72 | 1014.0 |
| 20260507011304 | 8 | 244 | 6.4 | 16.1 | 0.00 | 0.00 | 0.00 | 72 | 1014.1 |
| 20260507010804 | 8 | 238 | 9.7 | 16.1 | 0.00 | 0.00 | 0.00 | 71 | 1014.1 |
| 20260507010304 | 8 | 238 | 9.7 | 20.9 | 0.00 | 0.00 | 0.00 | 71 | 1014.1 |
| 20260507005805 | 8 | 259 | 8.0 | 14.5 | 0.00 | 0.00 | 0.00 | 71 | 1014.0 |
| 20260507005305 | 8 | 269 | 4.8 | 14.5 | 0.00 | 0.00 | 0.00 | 71 | 1014.0 |
| 20260507004804 | 8 | 246 | 4.8 | 14.5 | 0.00 | 0.00 | 0.00 | 72 | 1013.9 |
| 20260507004304 | 8 | 277 | 4.8 | 11.3 | 0.00 | 0.00 | 0.00 | 73 | 1013.9 |
| 20260507003804 | 8 | 278 | 4.8 | 9.7 | 0.00 | 0.00 | 0.00 | 74 | 1013.9 |
| 20260507003304 | 8 | 280 | 4.8 | 9.7 | 0.00 | 0.00 | 0.00 | 74 | 1013.9 |
| 20260507002804 | 8 | 284 | 4.8 | 11.3 | 0.00 | 0.00 | 0.00 | 74 | 1013.8 |
| 20260507002306 | 8 | 287 | 4.8 | 11.3 | 0.00 | 0.00 | 0.00 | 74 | 1013.8 |
| 20260507001804 | 8 | 304 | 4.8 | 12.9 | 0.00 | 0.00 | 0.00 | 73 | 1013.8 |
| 20260507001304 | 8 | 308 | 3.2 | 9.7 | 0.00 | 0.00 | 0.00 | 73 | 1013.7 |
| 20260507000805 | 8 | 318 | 3.2 | 9.7 | 0.00 | 0.00 | 0.00 | 72 | 1013.8 |
| 20260507000306 | 8 | 298 | 3.2 | 11.3 | 0.00 | 0.00 | 0.00 | 71 | 1013.7 |
| 20260506235804 | 8 | 293 | 8.0 | 14.5 | 0.00 | 0.00 | 0.00 | 71 | 1013.7 |
| 20260506235306 | 8 | 310 | 4.8 | 9.7 | 0.00 | 0.00 | 0.00 | 70 | 1013.6 |
| 20260506234804 | 8 | 335 | 3.2 | 9.7 | 0.00 | 0.00 | 0.00 | 69 | 1013.6 |
| 20260506234304 | 8 | 270 | 3.2 | 11.3 | 0.00 | 0.00 | 0.00 | 68 | 1013.6 |
| 20260506233804 | 8 | 278 | 6.4 | 11.3 | 0.00 | 0.00 | 0.00 | 70 | 1013.6 |
| 20260506233304 | 8 | 315 | 3.2 | 11.3 | 0.00 | 0.00 | 0.00 | 70 | 1013.5 |
| 20260506232805 | 8 | 296 | 6.4 | 12.9 | 0.00 | 0.00 | 0.00 | 70 | 1013.5 |
| 20260506232306 | 8 | 298 | 8.0 | 14.5 | 0.00 | 0.00 | 0.00 | 69 | 1013.5 |
| 20260506231804 | 8 | 314 | 6.4 | 11.3 | 0.00 | 0.00 | 0.00 | 67 | 1013.5 |
| 20260506231304 | 8 | 298 | 6.4 | 16.1 | 0.00 | 0.00 | 0.00 | 66 | 1013.5 |
| 20260506230805 | 8 | 247 | 9.7 | 14.5 | 0.00 | 0.00 | 0.00 | 65 | 1013.5 |
| 20260506230305 | 8 | 247 | 4.8 | 16.1 | 0.00 | 0.00 | 0.00 | 66 | 1013.5 |
| 20260506225804 | 8 | 290 | 9.7 | 14.5 | 0.00 | 0.00 | 0.00 | 65 | 1013.4 |
| 20260506225306 | 8 | 258 | 6.4 | 19.3 | 0.00 | 0.00 | 0.00 | 65 | 1013.5 |
| 20260506224804 | 8 | 250 | 8.0 | 16.1 | 0.00 | 0.00 | 0.00 | 66 | 1013.4 |
| 20260506224304 | 8 | 274 | 6.4 | 14.5 | 0.00 | 0.00 | 0.00 | 66 | 1013.4 |
| 20260506223805 | 8 | 252 | 6.4 | 20.9 | 0.00 | 0.00 | 0.00 | 66 | 1013.3 |
| 20260506223304 | 8 | 227 | 11.3 | 22.5 | 0.00 | 0.00 | 0.00 | 65 | 1013.3 |
| 20260506222804 | 8 | 235 | 9.7 | 20.9 | 0.00 | 0.00 | 0.00 | 65 | 1013.2 |
| 20260506222306 | 8 | 249 | 14.5 | 24.1 | 0.00 | 0.00 | 0.00 | 64 | 1013.2 |
| 20260506221804 | 8 | 260 | 9.7 | 20.9 | 0.00 | 0.00 | 0.00 | 63 | 1013.1 |
| 20260506221304 | 8 | 251 | 9.7 | 14.5 | 0.00 | 0.00 | 0.00 | 62 | 1013.1 |
| 20260506220804 | 9 | 239 | 9.7 | 19.3 | 0.00 | 0.00 | 0.00 | 64 | 1013.0 |
| 20260506220305 | 9 | 221 | 4.8 | 14.5 | 0.00 | 0.00 | 0.00 | 67 | 1013.0 |
| 20260506215804 | 8 | 229 | 3.2 | 4.8 | 0.00 | 0.00 | 0.00 | 67 | 1013.0 |
| 20260506215306 | 8 | 243 | 3.2 | 4.8 | 0.00 | 0.00 | 0.00 | 68 | 1012.9 |
| 20260506214804 | 8 | 290 | 3.2 | 8.0 | 0.00 | 0.00 | 0.00 | 68 | 1012.9 |
| 20260506214304 | 8 | 279 | 3.2 | 4.8 | 0.00 | 0.00 | 0.00 | 68 | 1012.9 |
| 20260506213804 | 8 | 267 | 3.2 | 8.0 | 0.00 | 0.00 | 0.00 | 68 | 1012.8 |
| 20260506213304 | 8 | 285 | 4.8 | 11.3 | 0.00 | 0.00 | 0.00 | 67 | 1012.8 |
| 20260506212805 | 8 | 327 | 8.0 | 14.5 | 0.00 | 0.00 | 0.00 | 67 | 1012.8 |
| 20260506212306 | 9 | 336 | 6.4 | 11.3 | 0.00 | 0.00 | 0.00 | 68 | 1012.8 |
| 20260506211805 | 9 | 13 | 6.4 | 12.9 | 0.00 | 0.00 | 0.00 | 68 | 1012.7 |
| 20260506211304 | 8 | 352 | 6.4 | 12.9 | 0.00 | 0.00 | 0.00 | 68 | 1012.7 |
| 20260506210804 | 8 | 338 | 4.8 | 12.9 | 0.00 | 0.00 | 0.00 | 68 | 1012.6 |
| 20260506210304 | 8 | 299 | 4.8 | 12.9 | 0.00 | 0.00 | 0.00 | 68 | 1012.6 |
| 20260506205804 | 8 | 359 | 3.2 | 11.3 | 0.00 | 0.00 | 0.00 | 68 | 1012.6 |
| 20260506205306 | 8 | 306 | 4.8 | 11.3 | 0.00 | 0.00 | 0.00 | 68 | 1012.6 |
| 20260506204804 | 8 | 326 | 4.8 | 11.3 | 0.00 | 0.00 | 0.00 | 68 | 1012.6 |
| 20260506204304 | 9 | 5 | 8.0 | 12.9 | 0.00 | 0.00 | 0.00 | 69 | 1012.5 |
| 20260506203804 | 8 | 329 | 3.2 | 11.3 | 0.00 | 0.00 | 0.00 | 69 | 1012.5 |
| 20260506203304 | 8 | 329 | 4.8 | 11.3 | 0.00 | 0.00 | 0.00 | 69 | 1012.5 |
| 20260506202804 | 8 | 260 | 3.2 | 9.7 | 0.00 | 0.00 | 0.00 | 70 | 1012.4 |
| 20260506202306 | 8 | 334 | 8.0 | 11.3 | 0.00 | 0.00 | 0.00 | 71 | 1012.4 |
| 20260506201805 | 8 | 278 | 3.2 | 9.7 | 0.00 | 0.00 | 0.00 | 71 | 1012.4 |
| 20260506201304 | 8 | 314 | 4.8 | 11.3 | 0.00 | 0.00 | 0.00 | 71 | 1012.3 |
| 20260506200804 | 8 | 296 | 3.2 | 8.0 | 0.00 | 0.00 | 0.00 | 72 | 1012.3 |
| 20260506200304 | 7 | 295 | 4.8 | 9.7 | 0.00 | 0.00 | 0.00 | 72 | 1012.3 |
| 20260506195804 | 7 | 323 | 4.8 | 9.7 | 0.00 | 0.00 | 0.00 | 72 | 1012.2 |
| 20260506195306 | 7 | 277 | 3.2 | 11.3 | 0.00 | 0.00 | 0.00 | 72 | 1012.2 |
| 20260506194804 | 7 | 292 | 4.8 | 11.3 | 0.00 | 0.00 | 0.00 | 72 | 1012.2 |
| 20260506194304 | 7 | 294 | 3.2 | 11.3 | 0.00 | 0.00 | 0.00 | 72 | 1012.2 |
| 20260506193804 | 7 | 310 | 4.8 | 11.3 | 0.00 | 0.00 | 0.00 | 72 | 1012.2 |
| 20260506193304 | 7 | 6 | 4.8 | 11.3 | 0.00 | 0.00 | 0.00 | 72 | 1012.1 |
| 20260506192804 | 7 | 306 | 9.7 | 14.5 | 0.00 | 0.00 | 0.00 | 72 | 1012.1 |
| 20260506192306 | 7 | 289 | 3.2 | 11.3 | 0.00 | 0.00 | 0.00 | 72 | 1012.1 |
| 20260506191804 | 7 | 322 | 4.8 | 9.7 | 0.00 | 0.00 | 0.00 | 71 | 1012.1 |
| 20260506191304 | 7 | 309 | 4.8 | 9.7 | 0.00 | 0.00 | 0.00 | 71 | 1012.1 |
| 20260506190804 | 7 | 298 | 3.2 | 8.0 | 0.00 | 0.00 | 0.00 | 71 | 1012.0 |
| 20260506190305 | 7 | 255 | 3.2 | 8.0 | 0.00 | 0.00 | 0.00 | 70 | 1012.0 |
| 20260506185804 | 7 | 282 | 1.6 | 3.2 | 0.00 | 0.00 | 0.00 | 72 | 1012.0 |
| 20260506185306 | 7 | 300 | 1.6 | 3.2 | 0.00 | 0.00 | 0.00 | 72 | 1012.0 |
| 20260506184804 | 7 | 294 | 1.6 | 8.0 | 0.00 | 0.00 | 0.00 | 73 | 1012.0 |
| 20260506184305 | 7 | 315 | 0.0 | 4.8 | 0.00 | 0.00 | 0.00 | 74 | 1012.0 |
| 20260506183804 | 7 | 2 | 1.6 | 3.2 | 0.00 | 0.00 | 0.00 | 74 | 1011.9 |
| 20260506183304 | 7 | 340 | 1.6 | 3.2 | 0.00 | 0.00 | 0.00 | 74 | 1011.9 |
| 20260506182804 | 7 | 200 | 0.0 | 0.0 | 0.00 | 0.00 | 0.00 | 75 | 1011.9 |
| 20260506182306 | 7 | 200 | 0.0 | 3.2 | 0.00 | 0.00 | 0.00 | 75 | 1012.0 |
| 20260506181804 | 7 | 217 | 1.6 | 3.2 | 0.00 | 0.00 | 0.00 | 75 | 1011.9 |
| 20260506181304 | 7 | 193 | 3.2 | 4.8 | 0.00 | 0.00 | 0.00 | 76 | 1011.9 |
| 20260506180804 | 6 | 72 | 0.0 | 0.0 | 0.00 | 0.00 | 0.00 | 76 | 1011.8 |
| 20260506180304 | 6 | 72 | 0.0 | 3.2 | 0.00 | 0.00 | 0.00 | 76 | 1011.6 |
| 20260506175804 | 6 | 96 | 1.6 | 3.2 | 0.00 | 0.00 | 0.00 | 76 | 1011.8 |
| 20260506175306 | 6 | 178 | 3.2 | 4.8 | 0.00 | 0.00 | 0.00 | 77 | 1011.8 |
| 20260506174804 | 6 | 165 | 1.6 | 3.2 | 0.00 | 0.00 | 0.00 | 77 | 1011.7 |
| 20260506174305 | 6 | 192 | 1.6 | 3.2 | 0.00 | 0.00 | 0.00 | 77 | 1011.5 |
| 20260506173804 | 6 | 212 | 1.6 | 3.2 | 0.00 | 0.00 | 0.00 | 77 | 1011.7 |
| 20260506173305 | 6 | 231 | 3.2 | 3.2 | 0.00 | 0.00 | 0.00 | 77 | 1011.7 |
| 20260506172805 | 6 | 203 | 0.0 | 3.2 | 0.00 | 0.00 | 0.00 | 78 | 1011.7 |
| 20260506172307 | 6 | 229 | 3.2 | 3.2 | 0.00 | 0.00 | 0.00 | 78 | 1011.6 |
| 20260506171804 | 6 | 199 | 0.0 | 0.0 | 0.00 | 0.00 | 0.00 | 78 | 1011.6 |
| 20260506171304 | 5 | 199 | 0.0 | 3.2 | 0.00 | 0.00 | 0.00 | 78 | 1011.6 |
| 20260506170804 | 5 | 241 | 0.0 | 1.6 | 0.00 | 0.00 | 0.00 | 78 | 1011.5 |
| 20260506170304 | 5 | 241 | 0.0 | 1.6 | 0.00 | 0.00 | 0.00 | 79 | 1011.5 |
| 20260506165804 | 5 | 220 | 0.0 | 0.0 | 0.00 | 0.00 | 0.00 | 79 | 1011.5 |
| 20260506165306 | 5 | 220 | 0.0 | 0.0 | 0.00 | 0.00 | 0.00 | 79 | 1011.4 |
| 20260506164805 | 5 | 220 | 0.0 | 3.2 | 0.00 | 0.00 | 0.00 | 79 | 1011.4 |
| 20260506164304 | 5 | 196 | 3.2 | 3.2 | 0.00 | 0.00 | 0.00 | 79 | 1011.3 |
| 20260506163805 | 5 | 194 | 1.6 | 3.2 | 0.00 | 0.00 | 0.00 | 79 | 1011.3 |
| 20260506163304 | 5 | 197 | 3.2 | 3.2 | 0.00 | 0.00 | 0.00 | 79 | 1011.2 |
| 20260506162804 | 5 | 148 | 0.0 | 1.6 | 0.00 | 0.00 | 0.00 | 80 | 1011.2 |
| 20260506162307 | 5 | 146 | 1.6 | 3.2 | 0.00 | 0.00 | 0.00 | 80 | 1011.2 |
| 20260506161805 | 5 | 209 | 0.0 | 0.0 | 0.00 | 0.00 | 0.00 | 80 | 1011.1 |
| 20260506161304 | 5 | 209 | 0.0 | 0.0 | 0.00 | 0.00 | 0.00 | 80 | 1011.1 |
| 20260506160804 | 5 | 209 | 0.0 | 0.0 | 0.00 | 0.00 | 0.00 | 80 | 1011.2 |
| 20260506160304 | 5 | 209 | 0.0 | 3.2 | 0.00 | 0.00 | 0.00 | 80 | 1011.1 |
| 20260506155804 | 5 | 211 | 3.2 | 8.0 | 0.00 | 0.00 | 0.00 | 80 | 1011.1 |
| 20260506155306 | 5 | 16 | 1.6 | 8.0 | 0.00 | 0.00 | 0.00 | 80 | 1011.1 |
| 20260506154804 | 5 | 345 | 0.0 | 9.7 | 0.00 | 0.00 | 0.00 | 80 | 1011.0 |
| 20260506154304 | 5 | 29 | 4.8 | 11.3 | 0.00 | 0.00 | 0.00 | 80 | 1010.9 |
| 20260506153804 | 5 | 42 | 4.8 | 12.9 | 0.00 | 0.00 | 0.00 | 80 | 1010.9 |
| 20260506153304 | 5 | 18 | 4.8 | 16.1 | 0.00 | 0.00 | 0.00 | 80 | 1010.9 |
| 20260506152804 | 4 | 21 | 8.0 | 16.1 | 0.00 | 0.00 | 0.00 | 81 | 1010.9 |
| 20260506152306 | 4 | 20 | 8.0 | 12.9 | 0.00 | 0.00 | 0.00 | 81 | 1010.9 |
| 20260506151804 | 4 | 7 | 4.8 | 9.7 | 0.00 | 0.00 | 0.00 | 81 | 1010.8 |
| 20260506151304 | 4 | 17 | 4.8 | 11.3 | 0.00 | 0.00 | 0.00 | 81 | 1010.8 |
| 20260506150804 | 3 | 24 | 4.8 | 11.3 | 0.00 | 0.00 | 0.00 | 82 | 1010.8 |
| 20260506150305 | 3 | 357 | 3.2 | 8.0 | 0.00 | 0.00 | 0.00 | 82 | 1010.8 |
| 20260506145804 | 3 | 15 | 3.2 | 4.8 | 0.00 | 0.00 | 0.00 | 82 | 1010.8 |
| 20260506145306 | 3 | 16 | 1.6 | 4.8 | 0.00 | 0.00 | 0.00 | 82 | 1010.8 |
| 20260506144804 | 3 | 36 | 0.0 | 8.0 | 0.00 | 0.00 | 0.00 | 82 | 1010.7 |
| 20260506144304 | 3 | 15 | 1.6 | 3.2 | 0.00 | 0.00 | 0.00 | 82 | 1010.8 |
| 20260506143805 | 3 | 28 | 0.0 | 3.2 | 0.00 | 0.00 | 0.00 | 82 | 1010.7 |
| 20260506143304 | 3 | 17 | 1.6 | 4.8 | 0.00 | 0.00 | 0.00 | 82 | 1010.7 |
| 20260506142804 | 3 | 27 | 1.6 | 4.8 | 0.00 | 0.00 | 0.00 | 82 | 1010.7 |
| 20260506142306 | 2 | 9 | 3.2 | 8.0 | 0.00 | 0.00 | 0.00 | 82 | 1010.7 |
| 20260506141804 | 2 | 3 | 1.6 | 8.0 | 0.00 | 0.00 | 0.00 | 82 | 1010.7 |
| 20260506141305 | 2 | 26 | 3.2 | 8.0 | 0.00 | 0.00 | 0.00 | 83 | 1010.7 |
| 20260506140804 | 2 | 24 | 3.2 | 8.0 | 0.00 | 0.00 | 0.00 | 83 | 1010.7 |
| 20260506140304 | 2 | 350 | 4.8 | 8.0 | 0.00 | 0.00 | 0.00 | 82 | 1010.7 |
| 20260506135804 | 2 | 349 | 3.2 | 4.8 | 0.00 | 0.00 | 0.00 | 82 | 1010.7 |
| 20260506135306 | 2 | 11 | 3.2 | 3.2 | 0.00 | 0.00 | 0.00 | 82 | 1010.8 |
| 20260506134805 | 2 | 11 | 1.6 | 4.8 | 0.00 | 0.00 | 0.00 | 82 | 1010.7 |
| 20260506134304 | 2 | 0 | 1.6 | 4.8 | 0.00 | 0.00 | 0.00 | 82 | 1010.8 |
| 20260506133804 | 2 | 25 | 0.0 | 0.0 | 0.00 | 0.00 | 0.00 | 82 | 1010.7 |
| 20260506133304 | 2 | 25 | 0.0 | 0.0 | 0.00 | 0.00 | 0.00 | 82 | 1010.7 |
| 20260506132804 | 2 | 25 | 0.0 | 0.0 | 0.00 | 0.00 | 0.00 | 82 | 1010.7 |
| 20260506132307 | 2 | 25 | 0.0 | 0.0 | 0.00 | 0.00 | 0.00 | 82 | 1010.7 |
| 20260506131804 | 2 | 25 | 0.0 | 0.0 | 0.00 | 0.00 | 0.00 | 81 | 1010.6 |
| 20260506131304 | 2 | 14 | 1.6 | 3.2 | 0.00 | 0.00 | 0.00 | 81 | 1010.6 |
| 20260506130804 | 2 | 150 | 0.0 | 1.6 | 0.00 | 0.00 | 0.00 | 81 | 1010.6 |
| 20260506130304 | 2 | 158 | 0.0 | 0.0 | 0.00 | 0.00 | 0.00 | 81 | 1010.6 |
| 20260506125804 | 2 | 158 | 0.0 | 0.0 | 0.00 | 0.00 | 0.00 | 81 | 1010.5 |
| 20260506125306 | 2 | 158 | 0.0 | 1.6 | 0.00 | 0.00 | 0.00 | 81 | 1010.5 |
| 20260506124804 | 2 | 31 | 0.0 | 0.0 | 0.00 | 0.00 | 0.00 | 81 | 1010.5 |
| 20260506124304 | 2 | 31 | 0.0 | 0.0 | 0.00 | 0.00 | 0.00 | 80 | 1010.5 |
| 20260506123804 | 2 | 42 | 1.6 | 3.2 | 0.00 | 0.00 | 0.00 | 80 | 1010.5 |
| 20260506123304 | 2 | 116 | 0.0 | 3.2 | 0.00 | 0.00 | 0.00 | 80 | 1010.4 |
| 20260506122804 | 2 | 114 | 0.0 | 3.2 | 0.00 | 0.00 | 0.00 | 80 | 1010.4 |
| 20260506122306 | 2 | 121 | 3.2 | 4.8 | 0.00 | 0.00 | 0.00 | 80 | 1010.3 |
| 20260506121804 | 2 | 320 | 0.0 | 0.0 | 0.00 | 0.00 | 0.00 | 80 | 1010.3 |
| 20260506121304 | 2 | 320 | 0.0 | 0.0 | 0.00 | 0.00 | 0.00 | 79 | 1010.3 |
| 20260506120804 | 2 | 320 | 0.0 | 0.0 | 0.00 | 0.00 | 0.00 | 79 | 1010.3 |
| 20260506120304 | 3 | 320 | 0.0 | 0.0 | 0.00 | 0.00 | 0.00 | 79 | 1010.2 |
| 20260506115804 | 3 | 320 | 0.0 | 0.0 | 0.00 | 0.00 | 0.00 | 79 | 1010.2 |
| 20260506115307 | 3 | 320 | 0.0 | 0.0 | 0.00 | 0.00 | 0.00 | 78 | 1010.2 |
| 20260506114804 | 3 | 320 | 0.0 | 0.0 | 0.00 | 0.00 | 0.00 | 78 | 1010.2 |
| 20260506104304 | 4 | 128 | 0.0 | 0.0 | 0.00 | 0.00 | 0.00 | 75 | 1009.9 |
| 20260506103804 | 4 | 128 | 1.6 | 3.2 | 0.00 | 0.00 | 0.00 | 75 | 1009.9 |
| 20260506103303 | 4 | 246 | 1.6 | 4.8 | 0.00 | 0.00 | 0.00 | 76 | 1009.8 |
| 20260506102804 | 3 | 292 | 3.2 | 4.8 | 0.00 | 0.00 | 0.00 | 76 | 1009.8 |
| 20260506102305 | 3 | 253 | 6.4 | 11.3 | 0.00 | 0.00 | 0.00 | 76 | 1009.8 |
| 20260506101804 | 3 | 258 | 0.0 | 0.0 | 0.00 | 0.00 | 0.00 | 76 | 1009.8 |
| 20260506101304 | 3 | 185 | 1.6 | 8.0 | 0.00 | 0.00 | 0.00 | 76 | 1009.8 |
| 20260506100804 | 3 | 58 | 1.6 | 4.8 | 0.00 | 0.00 | 0.00 | 77 | 1009.8 |
| 20260506100304 | 3 | 29 | 1.6 | 3.2 | 0.00 | 0.00 | 0.00 | 76 | 1009.8 |
| 20260506095804 | 3 | 195 | 4.8 | 8.0 | 0.00 | 0.00 | 0.00 | 76 | 1009.7 |
| 20260506095305 | 3 | 356 | 0.0 | 0.0 | 0.00 | 0.00 | 0.00 | 76 | 1009.7 |
| 20260506094804 | 3 | 356 | 0.0 | 1.6 | 0.00 | 0.00 | 0.00 | 76 | 1009.7 |
| 20260506094304 | 3 | 17 | 0.0 | 3.2 | 0.00 | 0.00 | 0.00 | 76 | 1009.6 |
| 20260506084304 | 3 | 32 | 0.0 | 3.2 | 0.00 | 0.00 | 0.00 | 73 | 1009.1 |
| 20260506083805 | 3 | 158 | 1.6 | 3.2 | 0.00 | 0.00 | 0.00 | 73 | 1009.0 |
| 20260506083304 | 3 | 66 | 3.2 | 4.8 | 0.00 | 0.00 | 0.00 | 73 | 1009.0 |
| 20260506082804 | 3 | 332 | 1.6 | 3.2 | 0.00 | 0.00 | 0.00 | 73 | 1008.9 |
| 20260506082305 | 3 | 353 | 0.0 | 0.0 | 0.00 | 0.00 | 0.00 | 73 | 1008.9 |
| 20260506081805 | 3 | 353 | 1.6 | 3.2 | 0.00 | 0.00 | 0.00 | 72 | 1008.8 |
| 20260506081304 | 3 | 195 | 0.0 | 3.2 | 0.00 | 0.00 | 0.00 | 72 | 1008.8 |
| 20260506080805 | 3 | 244 | 1.6 | 8.0 | 0.00 | 0.00 | 0.00 | 72 | 1008.8 |
| 20260506080305 | 3 | 257 | 1.6 | 3.2 | 0.00 | 0.00 | 0.00 | 71 | 1008.7 |
| 20260506062305 | 7 | 357 | 0.0 | 0.0 | 0.00 | 0.00 | 0.00 | 61 | 1007.9 |
| 20260506061804 | 7 | 357 | 0.0 | 0.0 | 0.00 | 0.00 | 0.00 | 60 | 1007.8 |
| 20260506061304 | 7 | 357 | 0.0 | 0.0 | 0.00 | 0.00 | 0.00 | 59 | 1007.8 |
| 20260506060804 | 7 | 357 | 0.0 | 0.0 | 0.00 | 0.00 | 0.00 | 58 | 1007.7 |
| 20260506060303 | 7 | 357 | 0.0 | 0.0 | 0.00 | 0.00 | 0.00 | 58 | 1007.6 |